GFSNW_700_spd_225.txt.gz
Wind_Speed
26 27 28 27 27 24 19 23 28 28 19 30 44 56 63 56 54 49 52 49 47 44 51 49 41 43 43 36 54 63 73 40 46 38 32 33 55 70 58 27 44 50 37 54
26 27 27 26 25 18 18 25 27 31 21 36 52 56 58 58 59 52 51 56 51 48 60 41 42 37 41 44 23 57 58 41 27 32 46 32 39 64 64 59 27 49 16 46
27 26 27 25 23 18 21 31 31 27 37 46 48 50 56 57 58 53 48 52 45 41 42 40 36 42 30 35 39 33 45 54 44 29 49 63 35 44 58 61 41 57 44 51
29 27 27 25 21 19 20 30 40 39 30 53 52 50 55 55 58 62 48 52 56 60 62 55 55 50 57 42 37 39 47 42 55 68 70 34 51 57 53 60 67 50 74 59
28 28 27 24 22 19 24 32 30 33 54 47 52 59 64 67 66 55 60 56 62 59 52 56 57 63 58 62 53 39 35 36 47 55 65 53 43 53 57 50 70 63 77 62
28 28 26 24 22 20 26 30 35 36 47 50 55 72 72 68 63 54 61 65 62 45 59 57 55 49 50 46 41 36 31 22 12 37 65 59 51 44 57 59 65 69 61 73
28 28 26 25 22 22 27 28 29 39 56 50 65 71 70 70 69 69 70 57 48 54 50 49 48 47 48 48 63 60 47 34 24 29 47 31 39 67 54 54 63 64 70 70
28 28 28 26 23 23 27 29 32 35 48 53 58 62 68 67 65 63 65 61 50 46 34 36 29 39 46 50 53 61 66 57 36 19 28 33 31 46 58 70 69 69 66 65
28 28 29 28 24 24 26 30 34 35 39 48 46 48 59 63 59 57 63 59 48 39 36 30 22 17 31 19 27 41 50 54 46 46 26 15 43 57 63 61 78 72 66 67
28 28 30 30 25 25 25 25 28 32 36 40 34 33 47 54 53 58 57 54 49 43 39 36 24 24 25 22 31 26 29 37 39 50 25 24 56 43 51 51 43 72 76 75
27 28 31 28 28 26 22 24 22 24 29 30 26 28 33 41 48 48 47 35 40 38 34 30 20 22 26 26 34 21 33 27 17 15 19 21 36 44 47 65 68 63 62 69
26 28 30 27 23 17 16 18 19 19 15 20 21 20 27 28 29 37 35 36 34 42 33 32 23 29 24 28 26 26 36 38 40 30 32 28 20 23 41 44 52 57 52 48
24 26 26 25 14 9 13 9 8 11 13 12 9 23 23 24 28 29 39 37 32 28 31 34 27 27 25 31 32 32 32 26 48 43 53 48 46 28 36 34 36 43 38 40
22 24 23 21 11 7 11 14 13 8 9 6 10 13 15 16 19 22 20 24 24 27 28 30 31 33 27 32 37 32 36 40 31 46 52 59 60 37 30 31 38 40 33 32
20 21 21 14 8 7 8 8 11 10 7 5 9 10 12 12 15 18 19 20 24 25 29 34 37 41 39 40 34 34 22 34 43 43 21 30 46 38 36 29 31 37 33 32
17 17 19 6 7 9 8 8 9 10 11 8 7 8 12 18 19 19 21 23 25 29 33 36 41 43 31 25 43 51 50 40 37 36 33 30 28 25 24 15 22 28 34 32
14 13 13 8 8 9 10 8 5 8 11 10 5 9 13 16 17 17 17 20 25 26 31 39 39 40 37 42 50 42 39 37 29 34 32 27 23 28 23 30 28 37 38 36
11 9 9 8 1 10 12 13 13 7 6 10 5 5 6 9 12 14 16 19 22 29 33 38 40 41 43 38 53 46 38 36 33 26 18 25 26 27 26 25 36 43 39 34
11 8 6 5 6 3 4 8 12 13 13 4 6 8 7 7 8 12 16 18 20 22 28 30 25 33 28 48 47 38 36 32 26 27 25 24 25 29 28 27 35 37 38 37
11 6 5 5 8 7 5 1 1 2 7 10 11 10 10 12 14 11 8 9 14 11 18 18 29 40 40 37 32 31 34 29 32 31 30 29 25 29 33 37 35 32 35 33
6 3 3 6 6 5 1 0 2 2 3 5 6 8 12 12 13 13 8 6 6 5 7 9 7 22 34 33 36 34 25 29 29 27 30 30 19 10 9 28 28 34 30 27
2 4 4 5 3 3 2 2 2 2 2 4 8 11 9 9 8 7 6 6 5 6 6 6 5 15 19 25 30 34 28 29 28 27 29 37 35 30 24 22 33 29 27 29
5 5 4 3 2 2 2 3 1 3 6 9 13 10 5 4 7 5 4 4 5 12 5 5 8 16 11 16 20 27 28 20 24 31 32 30 35 37 29 29 32 32 32 31
6 5 3 3 3 3 4 12 18 16 12 11 9 4 3 2 4 2 4 5 7 4 4 5 14 8 6 2 3 18 27 28 31 30 31 30 32 31 30 33 36 35 31 28
5 4 4 5 6 10 12 11 6 5 7 4 2 1 2 2 3 3 4 3 4 5 7 16 7 5 2 10 9 6 12 19 24 25 27 30 37 40 40 34 27 23 22 23
8 7 6 5 8 6 7 6 4 3 2 4 2 1 3 2 3 3 3 4 3 8 11 7 5 3 5 8 10 11 12 12 17 24 32 38 36 31 27 25 23 22 23 23
8 9 11 9 6 4 5 3 2 4 5 4 2 2 2 3 3 3 4 5 9 8 3 7 5 5 1 8 10 9 11 10 11 19 22 26 23 19 17 21 23 22 21 20

GFSNW_700_spd_228.txt.gz
Wind_Speed
24 24 23 23 23 20 19 20 24 20 14 23 38 50 42 46 36 18 35 42 37 41 40 33 30 18 21 25 27 47 46 33 42 35 34 43 51 60 49 23 31 40 25 46
24 24 22 22 21 17 17 24 28 25 19 36 41 42 46 43 43 24 33 36 41 42 43 26 31 39 44 31 28 25 46 32 27 34 38 25 53 60 59 56 31 42 15 42
25 24 22 21 20 17 17 27 24 24 28 35 40 38 41 44 47 50 45 44 40 42 48 45 35 37 44 34 34 38 37 29 34 29 49 54 30 45 52 53 39 49 48 76
26 25 23 21 20 18 20 24 29 28 29 34 47 37 39 43 50 46 42 45 56 43 42 33 42 47 48 43 42 26 27 20 28 50 63 56 49 56 53 59 64 47 68 64
27 25 23 21 20 19 23 26 26 30 28 40 41 39 49 52 46 42 44 50 55 46 52 45 51 51 49 50 31 21 29 31 31 41 32 49 54 52 54 59 63 63 67 60
27 26 23 22 20 20 25 25 24 25 34 33 37 41 42 49 47 53 57 60 55 43 56 52 53 44 48 51 45 33 26 29 29 41 38 33 21 47 48 49 61 62 64 75
26 26 24 22 21 22 25 28 28 30 38 40 46 42 45 49 49 54 54 57 56 56 49 42 42 39 42 47 48 41 35 33 28 34 22 15 20 22 27 46 57 59 59 65
27 26 25 23 23 24 26 28 31 32 40 42 43 46 49 51 51 51 56 64 59 53 47 42 28 29 30 46 47 48 44 35 24 28 29 31 47 33 27 33 63 64 65 72
26 25 25 24 25 25 27 29 31 37 41 48 43 46 45 50 52 51 49 42 54 49 45 28 21 16 25 13 20 35 40 47 36 26 12 11 52 37 31 28 43 48 57 76
25 25 25 24 26 28 24 29 31 35 43 41 42 42 43 45 43 42 39 41 51 44 48 35 23 21 26 17 21 22 27 28 35 37 22 20 75 66 50 25 49 35 53 72
25 24 23 24 26 25 24 36 30 31 41 39 35 32 33 37 40 34 33 26 39 38 35 31 18 23 28 29 29 25 27 18 24 27 24 24 55 40 34 33 43 48 42 49
24 21 21 24 25 24 25 26 23 24 32 36 33 35 32 28 32 30 35 31 34 38 34 24 26 23 24 31 29 31 28 37 31 24 20 27 36 31 29 25 41 42 37 40
21 19 21 24 23 23 19 14 11 17 23 28 28 27 25 23 20 23 28 31 30 31 37 31 26 16 28 26 31 28 35 29 31 36 44 48 48 49 44 39 37 42 37 34
18 17 21 22 21 20 15 20 17 16 16 21 21 20 18 16 16 16 17 22 28 30 27 35 28 28 28 30 34 38 38 27 35 41 47 48 48 48 44 52 61 50 42 41
16 16 19 18 16 8 11 14 17 17 17 16 17 14 14 13 10 16 18 18 19 23 25 26 30 33 30 28 29 37 34 34 32 42 33 39 44 31 30 36 51 60 59 49
14 14 16 17 12 12 11 13 12 12 13 15 15 13 13 13 13 13 14 14 16 19 24 29 31 34 26 22 40 47 44 42 42 45 39 45 44 33 33 31 39 42 49 48
12 13 13 14 12 12 14 9 7 8 11 14 8 8 9 9 11 15 17 19 23 25 30 35 36 37 32 43 57 48 47 40 36 35 39 39 34 37 35 30 24 27 43 29
11 12 12 9 9 8 14 12 13 13 12 12 7 9 9 7 16 18 20 21 23 28 30 36 37 36 38 46 54 49 49 45 46 44 41 42 39 32 36 28 23 27 30 18
11 12 11 10 7 8 8 12 14 15 17 6 7 9 5 5 10 13 15 17 19 21 28 31 29 34 33 49 45 43 38 36 34 37 39 37 39 32 30 22 23 25 27 24
12 13 10 8 6 9 10 6 6 7 13 14 13 12 11 9 10 13 12 10 12 8 17 18 24 37 34 33 35 39 40 32 31 31 35 29 30 27 25 25 27 24 24 25
10 7 6 8 8 9 4 3 4 4 4 5 4 5 9 11 12 13 8 5 5 5 7 9 8 26 30 27 29 30 29 28 29 26 27 26 23 23 26 31 27 26 28 29
5 5 7 7 4 3 3 3 3 3 2 3 5 10 11 10 9 6 6 7 5 6 6 6 6 20 23 31 30 29 29 26 27 25 24 22 25 33 32 27 31 26 26 27
9 9 6 4 3 4 3 3 4 2 5 8 12 12 8 4 5 6 4 4 5 12 6 5 10 27 26 26 24 22 19 18 20 23 26 27 31 34 33 32 23 34 29 22
7 7 6 4 4 5 5 7 12 11 12 13 11 9 3 4 5 5 4 4 6 4 4 5 24 23 21 23 21 20 15 17 17 17 23 27 30 36 39 24 19 24 33 32
7 5 6 7 7 7 12 10 9 8 7 7 4 3 3 3 4 3 5 3 4 4 6 22 20 16 16 17 20 18 14 10 13 17 15 21 27 36 37 31 31 32 35 35
11 10 8 7 6 6 5 5 3 4 4 2 1 1 3 3 3 4 4 4 3 12 19 16 13 13 12 10 14 18 15 10 6 3 5 14 23 35 40 40 37 32 26 22
9 11 17 16 13 8 6 5 4 4 4 4 2 3 3 3 4 3 2 3 12 16 12 7 10 12 12 7 11 12 16 12 10 19 26 34 29 29 29 28 29 26 24 22

GFSNW_700_spd_234.txt.gz
Wind_Speed
25 24 23 21 18 20 20 18 20 11 12 15 17 29 34 26 28 18 9 12 20 25 23 28 24 18 15 26 30 10 5 6 22 32 26 28 35 38 30 18 14 31 23 39
24 23 23 22 21 19 18 19 22 17 17 22 19 24 26 22 26 27 21 21 13 12 13 12 16 21 14 13 19 14 16 4 8 16 32 26 27 41 45 41 22 28 16 25
24 22 20 21 21 20 18 20 18 21 19 22 24 23 24 21 22 23 27 19 14 15 20 17 19 24 10 1 3 6 10 17 17 15 6 12 9 9 10 24 35 36 36 49
22 19 17 22 22 19 18 21 23 21 15 18 24 23 22 23 24 20 15 20 21 22 23 17 22 24 22 18 17 14 18 18 16 20 19 22 29 29 22 19 14 27 51 58
22 18 16 23 20 20 21 25 25 25 24 23 23 23 26 25 24 23 24 22 21 24 23 21 25 23 21 19 14 3 13 15 12 23 20 22 29 30 29 25 27 30 48 54
21 18 18 22 24 23 23 24 23 24 27 23 24 23 22 16 19 19 18 23 29 26 24 22 26 27 25 25 23 20 17 16 12 28 19 18 21 35 31 32 29 30 39 53
18 18 19 22 23 20 24 24 25 27 29 26 26 25 26 29 29 29 29 27 26 24 23 26 29 31 30 27 33 26 29 23 18 24 13 14 37 24 23 26 29 31 37 30
22 20 20 21 22 22 26 26 27 29 32 28 28 27 29 29 29 28 32 33 28 21 25 29 31 28 27 39 40 35 34 29 21 14 16 23 34 24 21 24 33 27 32 31
23 23 21 22 25 22 23 25 25 29 34 40 29 30 29 30 28 31 31 25 21 19 25 25 25 21 19 10 9 19 35 34 32 22 11 11 33 20 23 28 44 32 41 39
23 23 24 24 21 18 22 28 27 30 39 39 33 34 32 28 33 35 38 25 21 19 25 30 27 35 26 28 17 13 26 34 40 38 31 24 46 29 19 27 28 31 40 48
23 24 25 25 24 20 25 28 28 32 37 43 35 32 37 40 38 43 28 28 25 19 20 24 20 21 25 29 33 26 23 20 28 30 26 22 48 39 30 37 33 35 30 34
23 25 25 23 23 24 20 25 22 24 33 41 36 37 36 33 25 24 30 35 29 29 20 17 18 16 18 29 32 31 36 33 28 22 29 41 41 26 23 25 26 32 26 28
24 25 23 22 21 20 21 25 22 25 31 36 28 13 8 12 14 15 30 31 29 30 29 32 32 19 16 23 30 28 31 30 37 31 43 39 39 32 34 33 28 33 28 29
25 24 21 19 17 17 20 25 20 22 30 36 33 21 17 13 12 20 23 22 26 32 33 31 33 24 19 23 26 29 27 27 34 38 41 41 38 32 33 30 30 39 37 37
23 21 19 15 15 16 20 21 22 23 25 20 18 25 26 21 21 20 20 19 21 26 28 32 32 31 28 26 27 29 25 32 34 40 34 29 34 29 29 30 31 32 32 31
21 20 15 12 13 15 16 19 8 10 13 15 24 19 23 21 20 21 21 18 20 23 23 26 28 28 24 17 26 25 25 29 33 39 35 36 37 35 37 37 37 36 34 36
20 17 12 11 13 15 14 14 11 7 9 20 14 11 11 8 14 15 15 17 17 16 21 25 26 23 24 31 31 31 35 36 32 35 36 39 38 40 37 37 37 35 37 39
18 13 10 12 14 15 15 11 11 12 12 14 10 13 19 16 15 15 14 15 16 18 19 21 22 16 22 22 35 31 26 27 29 31 31 35 37 37 38 38 37 37 41 42
16 11 11 12 15 18 14 13 11 14 14 7 11 12 12 8 12 10 11 11 13 15 19 24 16 13 16 23 19 21 23 27 31 34 34 35 37 38 39 41 39 39 41 42
13 10 10 13 14 11 10 12 16 16 18 21 27 20 19 18 17 10 7 9 9 7 11 12 13 18 19 17 18 21 31 35 36 41 41 39 41 40 39 40 38 40 41 38
12 10 9 9 9 8 9 7 6 6 6 10 15 18 16 13 10 12 7 6 5 5 6 5 6 10 9 12 26 30 27 30 32 35 39 39 38 36 34 33 34 37 37 33
12 12 11 10 9 7 6 6 6 7 6 6 6 7 9 13 13 7 7 8 5 6 7 4 5 8 15 23 30 27 28 31 36 35 38 37 33 30 29 29 33 33 28 32
11 9 7 6 7 9 8 7 7 5 6 7 9 11 13 11 6 7 6 5 6 6 5 5 8 12 23 26 25 27 27 32 34 31 22 24 22 23 27 28 26 22 21 24
8 7 8 7 8 8 10 9 7 7 10 12 13 11 8 7 7 8 5 6 5 4 5 6 11 22 20 23 27 26 29 31 31 24 15 15 14 15 17 18 17 17 20 29
8 7 7 12 13 12 10 10 12 16 14 11 10 11 12 10 7 5 4 4 5 5 5 14 20 17 20 22 23 24 27 28 26 18 12 7 6 9 11 12 15 15 20 20
13 13 11 11 12 14 15 12 9 9 9 8 7 7 5 8 5 6 6 5 4 4 13 18 20 18 18 18 21 21 20 26 29 19 13 9 2 3 2 7 8 7 9 12
10 13 17 22 22 14 13 13 12 10 9 9 8 5 6 4 6 6 6 5 8 13 15 18 17 17 17 19 20 18 18 18 23 27 25 23 15 6 4 9 17 18 21 24

GFSNW_700_spd_237.txt.gz
Wind_Speed
21 21 22 21 21 21 18 17 16 11 12 15 16 20 19 22 26 20 18 22 20 21 21 23 23 19 14 18 23 18 10 4 8 20 28 25 40 28 32 18 10 22 24 24
24 22 21 19 18 17 16 18 21 16 15 18 17 19 21 24 25 20 24 22 20 18 19 19 9 9 7 9 5 10 13 6 9 10 19 21 17 20 21 20 17 34 18 19
24 21 19 15 15 19 18 17 17 17 17 14 18 19 20 17 15 16 17 21 22 20 19 20 16 19 10 18 11 15 11 11 11 12 10 11 7 9 1 8 7 13 33 40
25 22 18 13 16 20 15 17 21 15 15 18 18 19 22 23 23 17 17 21 21 20 22 21 22 15 9 10 9 2 8 11 14 16 20 16 17 17 9 11 10 8 42 38
24 21 18 15 16 17 19 23 23 22 21 20 22 21 22 24 24 22 18 19 21 17 22 21 22 21 17 16 13 5 5 8 9 16 16 20 23 20 16 17 18 27 27 33
25 20 18 16 18 21 22 21 22 22 27 21 22 22 23 23 23 28 13 19 24 19 20 19 19 20 21 22 22 18 15 10 9 17 12 14 20 29 21 23 24 27 30 29
26 22 18 16 21 22 24 20 21 25 29 25 24 23 24 25 23 28 26 23 22 24 21 18 22 24 25 26 27 23 25 19 13 19 12 8 30 21 20 21 19 23 32 31
25 23 22 20 20 23 24 22 25 27 37 27 26 24 25 27 25 25 27 26 23 23 23 23 21 21 23 30 31 31 26 25 17 13 15 22 35 18 22 23 31 25 30 31
22 20 20 22 21 21 26 26 28 30 34 33 25 26 24 27 28 27 22 19 19 19 24 21 23 21 18 9 6 8 25 30 29 18 14 9 29 12 13 25 37 23 28 32
19 21 21 22 23 24 25 25 26 29 36 37 28 29 27 22 24 29 25 21 15 18 24 26 29 31 24 33 24 14 15 29 36 36 25 22 42 32 19 17 25 20 26 29
20 22 22 23 24 24 24 25 26 30 39 42 39 36 36 33 30 34 28 30 25 20 20 18 20 21 25 28 31 30 20 17 29 35 27 22 34 30 30 32 29 32 30 29
21 23 22 24 25 25 24 24 23 27 34 37 29 36 33 34 35 38 36 37 32 10 10 10 8 14 17 20 28 23 35 34 23 25 31 39 29 20 15 14 20 26 27 29
23 22 23 25 24 23 23 23 19 22 30 33 33 17 21 23 15 12 32 21 20 27 27 31 28 23 20 24 22 22 26 28 38 32 45 40 35 29 26 27 27 32 29 29
21 22 24 23 22 22 20 19 16 19 27 33 29 18 16 16 11 15 15 16 18 26 27 33 35 29 20 25 26 27 22 21 29 37 46 35 35 31 30 31 29 31 33 32
21 22 21 21 20 18 17 17 16 20 25 25 26 19 19 24 19 18 24 24 20 22 29 34 39 32 29 31 28 29 22 25 28 33 33 28 31 28 26 28 28 29 39 36
20 20 20 19 16 15 17 18 14 7 19 38 39 15 20 21 19 17 19 20 24 21 29 28 28 28 23 18 24 22 22 24 25 32 29 31 36 33 33 33 34 35 36 38
19 18 18 16 15 17 18 16 13 19 12 18 20 13 12 5 11 14 14 15 18 20 25 26 29 23 19 27 32 25 23 25 28 30 31 34 33 38 36 37 38 38 40 42
18 17 16 14 15 18 19 14 15 15 15 14 10 11 15 17 15 14 12 13 15 20 23 25 21 15 20 20 22 19 19 20 20 23 25 28 32 35 38 37 37 39 41 41
17 15 14 13 15 19 18 14 16 16 14 9 11 13 13 7 9 15 20 19 15 16 19 22 15 17 16 17 16 17 18 22 24 26 30 33 36 38 40 40 40 42 42 41
15 13 13 13 13 11 11 12 14 18 24 27 34 26 21 18 15 13 10 10 9 8 12 9 15 21 24 22 16 16 19 23 27 30 34 37 39 42 44 44 41 41 42 40
15 13 12 14 12 11 7 8 8 8 9 16 17 14 18 20 15 12 8 7 7 6 8 7 6 7 9 10 15 20 24 31 32 34 37 41 44 48 48 46 44 44 42 39
13 15 14 13 12 8 7 8 8 9 8 9 8 7 8 10 9 8 7 8 6 7 5 5 5 8 15 20 22 29 31 32 35 36 42 44 44 41 39 35 35 37 39 39
12 11 8 6 7 11 8 9 9 7 8 8 6 6 8 9 9 8 8 6 8 5 5 5 4 9 15 25 24 27 27 28 32 35 39 38 35 30 28 30 26 26 26 27
9 6 8 8 9 9 12 13 11 10 7 6 8 10 6 7 7 8 6 7 6 5 5 7 7 15 25 24 25 26 28 27 28 38 34 26 26 24 24 22 20 20 24 27
9 7 8 13 13 14 12 13 12 11 12 13 15 15 13 10 9 7 7 5 5 6 5 8 16 23 25 23 23 27 27 25 27 32 32 23 19 17 16 21 19 21 25 27
14 16 12 10 13 15 16 16 16 15 12 11 11 9 7 10 7 7 8 6 5 2 8 15 20 22 21 22 22 27 21 23 21 25 31 31 15 10 7 7 8 10 12 16
12 14 18 22 20 16 15 14 15 14 11 12 8 8 7 5 6 8 6 7 11 13 15 17 19 18 17 19 19 20 19 17 15 18 23 28 23 22 20 20 18 17 17 15

GFSNW_700_spd_240.txt.gz
Wind_Speed
23 23 24 22 21 19 15 14 15 7 10 16 19 22 21 19 24 23 24 26 22 26 27 26 23 18 9 6 12 16 14 4 5 10 13 24 27 41 34 18 14 17 32 13
22 22 23 22 19 16 11 16 20 13 8 21 16 17 21 21 22 21 19 15 18 21 24 26 17 20 10 5 13 11 11 8 6 7 13 6 2 8 11 23 19 40 17 19
22 22 23 21 17 13 12 15 14 16 13 17 18 18 19 17 15 20 19 19 19 21 25 21 18 20 16 21 10 9 7 11 9 9 11 13 13 16 11 4 5 13 44 39
21 21 22 22 16 13 13 16 19 15 16 19 21 21 23 25 26 22 23 27 20 21 24 22 22 20 16 14 9 7 8 6 8 10 14 15 16 17 14 10 7 7 20 39
21 22 21 20 18 16 16 19 20 21 22 20 21 20 22 23 21 21 25 22 24 23 22 23 21 18 15 11 8 8 8 7 6 13 15 14 17 18 16 15 13 22 24 24
22 22 22 19 15 18 18 17 19 20 26 24 22 22 21 23 24 23 22 23 24 25 22 25 20 17 14 18 18 17 20 12 4 6 3 3 12 28 21 23 22 19 25 20
24 24 22 20 18 18 20 19 23 26 30 25 24 23 24 25 24 28 28 24 24 26 24 25 23 25 25 23 25 22 26 21 15 8 9 6 15 7 10 17 22 23 25 23
24 23 21 19 20 22 20 20 25 28 36 29 28 23 27 24 25 26 28 27 25 24 23 23 24 24 21 18 20 23 28 26 15 7 11 20 26 23 20 20 22 21 24 21
23 21 19 17 19 21 24 20 23 30 36 38 29 30 26 28 27 30 27 23 22 20 23 23 17 14 16 10 6 2 10 26 25 14 6 6 6 6 3 9 29 22 18 16
22 21 19 20 21 21 24 25 23 32 39 38 31 37 32 25 24 29 29 20 19 19 25 24 22 27 20 29 30 24 13 13 27 29 17 20 33 21 16 15 19 10 13 18
21 20 19 21 22 22 23 23 20 29 37 38 33 33 37 35 32 34 30 32 24 22 22 18 21 17 22 26 32 30 27 11 12 12 11 17 4 6 7 13 20 20 20 20
21 19 20 22 22 23 24 29 23 25 32 35 26 25 23 22 29 32 33 36 33 26 15 11 7 16 19 16 10 14 25 29 19 17 20 38 33 16 14 13 13 10 12 14
20 19 21 21 22 24 25 26 18 19 25 32 30 21 14 17 22 26 30 21 20 26 22 29 27 21 17 18 17 19 20 17 25 22 41 39 29 27 25 23 22 22 21 23
19 20 21 22 23 23 23 22 16 15 21 30 17 15 12 9 15 20 17 15 13 14 18 25 24 26 21 25 25 27 24 22 24 27 31 29 31 29 26 25 25 31 30 28
19 20 22 22 22 21 21 19 14 14 19 25 32 30 18 25 28 26 23 21 19 23 25 29 30 30 28 35 35 39 29 29 26 32 25 24 30 25 19 23 28 26 30 26
19 20 22 21 21 20 20 15 10 12 14 25 32 29 10 14 17 14 14 20 23 26 30 33 34 26 22 25 27 20 16 19 25 27 28 29 28 26 23 25 28 29 32 36
19 20 20 20 19 18 17 12 8 9 17 21 16 18 6 3 5 10 14 12 15 20 25 31 29 29 26 35 38 27 21 22 22 22 24 27 26 31 28 26 30 34 38 41
18 19 19 18 18 18 16 8 13 17 22 22 13 15 14 13 14 16 12 11 13 20 20 25 26 24 23 26 26 16 14 18 19 18 19 23 26 28 27 28 31 35 40 41
18 17 18 17 17 17 15 12 13 15 20 19 14 17 18 18 11 11 15 15 16 17 21 22 16 21 18 20 13 15 10 10 17 25 32 37 42 44 42 42 42 45 48 47
17 16 15 14 9 9 10 12 13 20 26 32 38 29 32 21 14 13 8 10 12 10 18 11 21 26 23 23 19 22 8 16 25 31 35 38 39 41 42 44 45 46 47 48
14 12 11 11 13 14 10 9 9 8 13 22 25 26 28 20 25 22 13 6 7 9 10 11 7 6 7 15 20 18 19 26 33 34 36 37 40 44 49 50 49 48 48 51
12 14 17 17 12 7 8 8 9 10 10 11 11 10 11 14 14 13 8 8 5 7 7 6 4 8 13 14 12 16 27 29 30 31 33 32 40 46 48 48 47 43 41 38
12 8 9 6 6 11 9 9 10 9 10 13 10 10 8 7 7 7 7 6 8 8 6 4 5 4 6 15 19 20 23 24 30 27 27 33 40 45 39 37 35 34 31 30
8 7 8 8 9 9 13 14 16 20 17 8 8 8 6 7 7 7 5 7 7 5 6 5 4 6 15 21 23 24 24 29 26 25 28 32 43 39 28 26 27 29 28 30
10 8 9 15 13 15 14 16 19 18 16 16 14 16 11 10 8 6 6 5 6 6 4 4 9 15 19 22 22 24 23 25 24 23 26 31 30 27 22 18 17 18 23 29
13 16 17 12 15 17 18 21 20 17 20 17 14 11 8 10 7 7 9 7 6 1 8 11 16 18 19 20 20 22 22 22 22 23 22 25 24 23 26 23 20 17 15 16
14 22 22 19 23 26 21 19 18 18 16 14 10 8 9 6 7 8 8 8 9 8 11 15 17 18 18 17 15 18 20 21 20 19 19 19 18 21 23 25 25 24 25 23

GFSNW_700_spd_246.txt.gz
Wind_Speed
18 18 18 18 18 18 19 15 10 10 13 13 13 13 13 11 12 12 14 12 12 16 27 22 17 13 16 21 16 21 17 12 13 22 20 3 27 24 31 7 8 14 18 17
17 18 17 17 18 18 17 16 10 9 9 9 10 11 15 17 13 10 13 15 17 19 18 15 8 17 14 17 15 10 15 9 10 8 11 19 12 10 6 26 18 9 11 14
17 17 16 16 17 19 17 16 8 9 12 10 8 13 17 15 15 19 14 15 17 20 21 19 20 19 18 18 20 11 13 16 15 7 12 19 19 20 17 9 10 17 14 26
17 16 15 16 17 19 17 14 12 11 10 11 17 14 18 20 18 15 11 18 18 19 23 26 14 23 23 18 9 12 13 18 15 15 19 17 16 21 21 16 14 11 18 30
16 16 15 15 17 19 17 15 15 14 22 17 17 16 21 20 16 13 18 19 20 20 22 22 28 26 22 25 18 19 16 8 21 23 12 13 19 28 29 19 19 21 18 23
17 16 16 16 16 18 18 16 16 19 21 19 20 23 24 24 21 23 21 24 24 24 24 24 23 27 28 27 28 23 25 16 17 11 10 22 18 6 7 15 20 14 16 16
17 16 16 16 17 18 18 17 18 21 28 26 25 27 28 27 26 26 25 24 26 25 28 31 32 32 30 26 29 26 28 27 21 23 23 3 12 10 12 20 20 16 18 17
18 17 17 17 16 18 18 16 19 23 31 31 30 29 31 30 28 28 28 26 24 23 22 26 21 23 24 25 20 11 23 26 16 6 8 26 29 14 17 11 20 13 12 12
18 18 18 17 17 17 20 18 20 22 30 37 27 30 30 33 34 32 22 15 14 19 23 24 12 7 10 8 6 6 12 13 23 10 4 5 7 8 11 21 4 7 3 7
20 19 19 18 17 18 21 18 22 26 31 36 30 33 34 31 28 33 30 27 23 23 16 17 17 14 12 6 6 10 15 13 18 26 15 15 22 19 5 1 2 7 5 6
20 20 19 18 17 18 22 17 22 25 32 36 33 30 35 34 28 29 23 22 12 9 9 7 4 6 1 11 13 16 16 12 15 12 16 11 17 2 4 6 7 8 3 1
20 20 19 18 17 17 21 19 18 23 30 37 35 37 35 33 24 28 19 20 18 12 13 14 22 28 27 15 10 10 8 7 14 12 11 10 16 12 5 8 11 9 11 11
20 19 18 18 17 17 21 20 19 25 31 34 21 9 9 10 9 13 26 18 20 23 20 24 20 17 14 12 19 12 12 15 21 21 18 28 27 31 29 17 17 20 15 16
18 18 17 16 17 17 20 20 20 22 25 33 4 2 3 14 13 17 22 22 21 19 21 27 30 23 15 28 25 30 33 31 26 24 18 16 13 16 17 12 12 16 20 22
17 16 16 15 16 17 20 19 19 20 22 30 31 20 17 6 17 19 19 16 14 17 21 32 34 33 29 32 35 41 30 28 25 21 17 22 8 9 15 17 19 19 21 20
16 15 15 15 16 18 19 19 17 13 13 23 29 13 9 2 6 12 16 19 21 22 24 30 28 26 21 23 38 36 29 25 19 22 29 22 22 19 18 17 20 23 26 28
15 15 15 15 16 18 15 15 15 12 12 17 13 18 3 6 13 9 11 12 15 14 24 27 29 32 29 34 44 27 29 22 21 20 16 19 21 19 19 23 28 31 31 32
14 15 15 15 16 16 13 11 15 16 16 22 13 18 23 17 11 11 14 17 20 24 27 31 30 28 29 30 25 14 15 15 15 14 20 18 20 20 23 28 32 34 38 40
14 15 16 16 15 15 13 12 12 15 21 19 24 29 25 5 6 8 15 19 24 21 24 23 18 19 18 23 22 21 20 18 20 14 17 18 17 21 26 30 33 37 37 36
14 14 15 12 7 7 8 10 13 12 22 31 33 27 29 19 22 25 21 16 14 11 21 14 17 24 22 24 26 25 25 20 16 15 13 17 23 28 30 33 33 31 34 39
13 12 11 10 8 9 11 8 7 9 10 21 11 13 17 14 15 19 12 10 7 7 12 13 7 9 13 7 5 8 8 14 16 16 19 24 27 28 32 28 27 31 34 37
12 14 15 14 10 8 8 7 8 10 8 9 11 12 11 12 13 12 9 14 8 7 6 7 5 15 16 15 12 6 7 12 15 18 21 22 25 26 25 27 29 28 31 33
15 16 12 7 10 14 11 10 11 8 6 10 12 18 26 22 8 8 6 4 7 6 7 6 15 15 14 14 10 8 12 13 15 17 18 18 20 22 23 19 23 27 31 31
14 10 10 10 10 11 17 17 5 7 17 20 21 21 16 9 9 7 5 6 6 5 6 12 16 12 10 8 10 14 15 15 15 16 16 17 18 18 18 23 25 30 29 28
15 11 11 17 16 16 9 8 13 16 19 21 22 20 15 9 7 6 7 6 7 7 11 16 13 10 8 8 13 16 17 18 17 17 18 19 18 18 19 22 27 30 29 27
21 19 18 16 16 13 15 19 23 23 24 22 20 13 9 11 8 10 12 7 9 15 17 12 7 5 10 13 15 16 17 18 19 20 20 21 21 20 19 22 28 30 29 28
16 28 33 29 30 27 25 23 24 26 26 24 19 13 11 7 9 12 13 18 20 15 16 14 10 9 13 15 17 18 19 19 20 21 21 20 20 22 21 22 25 28 29 29

GFSNW_700_spd_249.txt.gz
Wind_Speed
19 19 18 18 16 14 13 12 10 11 12 13 12 12 12 11 10 11 11 12 11 16 17 20 18 12 11 16 19 24 19 13 17 29 14 16 19 17 18 7 5 10 4 5
18 18 18 17 17 15 13 12 10 14 11 9 12 12 12 14 12 10 10 14 15 15 18 16 12 22 27 16 21 15 23 8 10 15 11 21 25 25 19 19 10 18 6 7
18 17 17 17 17 16 14 13 8 11 13 13 13 11 14 12 11 15 9 12 11 16 18 16 19 24 24 23 22 16 18 19 15 11 20 24 22 26 22 19 10 19 18 22
17 17 16 16 17 18 15 13 10 11 11 10 13 18 18 17 15 16 11 13 14 16 22 24 17 25 28 26 21 15 21 18 14 23 19 20 23 27 28 26 25 12 10 14
17 17 17 17 18 19 15 16 15 15 18 16 18 16 22 18 17 17 18 21 21 23 24 24 30 26 27 26 30 25 26 17 30 27 12 10 28 36 26 20 18 21 20 19
17 17 17 18 18 19 17 15 16 18 21 19 20 20 19 23 23 25 19 24 28 26 24 26 28 31 35 36 34 30 31 24 19 19 14 27 20 9 11 15 17 14 20 15
18 17 17 18 18 20 18 16 17 19 25 25 26 26 26 26 25 30 28 25 25 28 27 28 28 30 30 30 32 28 28 30 23 26 22 2 3 19 13 12 14 16 18 15
18 17 17 18 18 20 19 17 19 21 27 28 29 28 31 30 27 26 27 28 27 20 19 22 25 32 22 16 17 18 27 31 17 8 9 22 4 6 24 21 10 17 13 9
18 18 17 18 18 19 22 18 19 23 28 30 26 30 30 29 32 33 25 19 17 24 19 21 10 7 13 9 9 3 2 12 20 6 3 4 5 9 24 5 4 15 16 13
19 19 18 18 18 19 22 20 20 24 29 30 22 25 27 28 27 29 31 23 14 10 13 13 9 8 10 5 9 7 12 7 15 14 12 10 16 24 12 1 10 9 11 12
19 19 19 19 19 18 22 20 20 23 30 34 30 22 29 28 29 26 21 19 3 3 7 5 4 8 8 16 18 13 8 4 4 8 7 8 13 14 5 14 9 14 8 9
20 20 20 20 19 18 21 19 16 21 28 35 33 33 26 23 18 26 24 22 9 3 7 5 15 26 21 14 8 10 7 9 2 6 14 18 18 23 27 26 20 14 13 10
20 20 20 20 19 17 20 18 17 23 28 34 22 24 22 16 10 11 18 14 17 23 23 23 16 18 18 17 18 16 12 14 16 26 19 25 20 15 9 23 15 6 9 14
20 20 20 18 17 17 20 16 17 21 25 34 9 5 3 6 11 16 21 16 15 15 17 18 25 28 16 23 22 30 31 27 30 32 27 20 15 16 11 13 12 19 14 15
19 19 18 17 17 16 20 15 17 19 21 30 36 24 15 24 29 21 21 21 18 18 18 22 25 25 28 31 28 31 24 24 24 25 17 21 22 13 20 16 16 21 17 17
17 17 17 16 16 17 16 17 18 15 15 24 35 19 14 9 3 9 13 14 19 23 21 25 29 27 20 18 31 36 29 24 21 25 22 22 22 22 20 17 17 19 22 25
16 16 16 15 17 17 15 16 15 18 17 19 17 15 5 12 12 16 12 10 14 16 20 28 27 26 25 33 43 24 31 16 17 19 23 22 17 20 18 20 23 25 27 29
16 16 16 16 16 17 12 11 17 17 17 17 11 13 12 17 15 10 8 10 13 19 22 26 26 27 30 32 28 23 16 17 16 13 10 14 18 19 17 19 22 24 28 30
15 15 15 16 16 15 14 15 13 13 19 14 18 25 22 5 7 8 11 10 11 18 27 31 27 28 26 28 28 26 23 22 21 20 20 15 14 15 18 22 27 31 31 32
15 14 14 14 13 11 9 9 11 12 19 29 32 22 22 15 13 18 13 12 10 11 15 13 18 28 24 24 23 15 17 24 21 12 15 16 18 21 26 28 28 28 28 27
16 14 13 11 10 10 10 9 10 10 8 15 8 6 10 10 10 12 8 7 6 6 10 11 8 21 19 16 16 15 13 11 8 11 15 16 18 20 22 23 23 23 23 24
14 14 15 12 11 9 9 9 9 11 9 8 7 7 11 14 18 10 7 9 7 8 7 6 8 22 18 17 17 15 13 7 11 15 17 18 19 21 23 23 21 19 21 25
19 20 15 9 12 16 11 12 12 10 8 7 9 11 15 17 11 11 10 7 9 6 7 7 19 20 19 16 15 11 11 13 16 16 17 18 20 21 22 22 21 22 22 27
21 18 15 14 11 12 23 22 5 12 14 13 14 16 14 19 12 9 5 6 6 5 7 17 20 18 16 15 12 14 13 16 18 17 18 19 20 21 21 22 23 22 23 27
20 12 12 19 22 19 9 12 16 17 19 18 18 19 18 16 9 6 6 5 7 8 14 18 18 16 13 11 11 13 16 16 17 18 19 20 21 23 23 22 21 23 25 27
27 23 17 12 17 19 21 17 15 16 17 19 19 14 9 11 8 10 11 7 11 18 18 18 18 14 13 12 12 16 17 18 19 20 22 22 23 24 23 23 24 24 27 29
35 30 36 34 32 23 15 13 12 17 21 19 16 10 11 8 11 14 15 25 24 23 23 24 20 18 14 9 12 15 17 19 22 24 25 25 24 23 24 24 23 23 25 26